Bedford, MA

6:12 AM EST on December 15, 2017 (GMT -0500)
Hanscom

Weather History for KBED - May, 2013

Change the Weather History Date:

Monday, May 6, 2013

  Actual Average Record
Temperature  
Mean Temperature 48 °F -  
Max Temperature 69 °F 64 °F 84 °F (1960)
Min Temperature 30 °F 43 °F 29 °F (1961)
Degree Days  
Heating Degree Days 17    
Moisture  
Dew Point 40 °F    
Average Humidity 82    
Maximum Humidity 100    
Minimum Humidity 43    
Precipitation  
Precipitation 0.00 in - - ()
Sea Level Pressure  
Sea Level Pressure 30.26 in    
Wind  
Wind Speed 1 mph (SE)    
Max Wind Speed 13 mph    
Max Gust Speed -    
Visibility 7 miles    
Events Fog    
Averages and records for this station are not official NWS values.
T = Trace of Precipitation, MM = Missing Value Source: NWS Daily Summary

Daily Weather History Graph

Daily Weather History Graph

Search for Another Location

Airport or City:

Trip Planner

Search our weather history database for the weather conditions in past years. The results will help you decide how hot, cold, wet, or windy it might be!

Date:

Astronomy

May. 06, 2013 Rise Set
Actual Time 5:33 AM EDT 7:50 PM EDT
Civil Twilight 5:02 AM EDT 8:22 PM EDT
Nautical Twilight 4:23 AM EDT 9:01 PM EDT
Astronomical Twilight 3:40 AM EDT 9:44 PM EDT
Moon 3:37 AM EDT (5/6) 4:44 PM EDT (5/6)
Length of Visible Light 15h 20m
Length of Day
14h 17m
Waning Crescent, 11% of the Moon is Illuminated
May 6
Waning Crescent
May 9
New
May 18
First Quarter
May 25
Full
May 31
Last Quarter

Hourly Weather History & Observations

Time (EDT) Temp. Windchill Dew Point Humidity Pressure Visibility Wind Dir Wind Speed Gust Speed Precip Events Conditions
12:56 AM 37.0 °F - 35.1 °F 93% 30.30 in 10.0 mi Calm Calm - N/A   Clear
1:56 AM 36.0 °F - 34.0 °F 93% 30.30 in 10.0 mi Calm Calm - N/A   Clear
2:56 AM 35.1 °F - 33.1 °F 92% 30.29 in 10.0 mi Calm Calm - N/A   Clear
3:56 AM 34.0 °F - 32.0 °F 92% 30.29 in 10.0 mi Calm Calm - N/A   Clear
4:56 AM 30.9 °F - 30.0 °F 96% 30.29 in 2.5 mi Calm Calm - N/A   Scattered Clouds
5:00 AM 32.0 °F - 30.2 °F 93% 30.25 in 1.5 mi Calm Calm - N/A   Mostly Cloudy
5:14 AM 30.2 °F - 30.2 °F 100% 30.25 in 0.2 mi Calm Calm - N/A Fog Light Freezing Fog
5:31 AM 30.2 °F - 30.2 °F 100% 30.25 in 0.8 mi Calm Calm - N/A   Mist
5:37 AM 32.0 °F - 30.2 °F 93% 30.25 in 0.2 mi Calm Calm - N/A Fog Fog
5:56 AM 33.1 °F - 33.1 °F 100% 30.30 in 0.2 mi Calm Calm - N/A Fog Fog
6:47 AM 35.6 °F - 35.6 °F 100% 30.27 in 0.2 mi Calm Calm - N/A Fog Fog
6:56 AM 36.0 °F - 35.1 °F 97% 30.32 in 0.1 mi Calm Calm - N/A Fog Fog
7:35 AM 39.2 °F - 39.2 °F 100% 30.28 in 0.5 mi Calm Calm - N/A Fog Fog
7:47 AM 41.0 °F - 41.0 °F 100% 30.28 in 0.5 mi Calm Calm - N/A Fog Fog
7:56 AM 42.1 °F 40.2 °F 41.0 °F 96% 30.33 in 0.5 mi South 3.5 mph - N/A Fog Fog
8:56 AM 43.0 °F - 42.1 °F 97% 30.33 in 0.8 mi Calm Calm - N/A   Overcast
9:03 AM 44.6 °F - 42.8 °F 93% 30.29 in 7.0 mi Calm Calm - N/A   Overcast
9:27 AM 46.4 °F - 42.8 °F 87% 30.29 in 8.0 mi Calm Calm - N/A   Overcast
9:56 AM 46.9 °F - 43.0 °F 86% 30.33 in 10.0 mi Calm Calm - N/A   Overcast
10:23 AM 50.0 °F - 44.6 °F 82% 30.28 in 10.0 mi Calm Calm - N/A   Partly Cloudy
10:56 AM 53.1 °F - 44.1 °F 71% 30.32 in 10.0 mi Calm Calm - N/A   Clear
11:56 AM 57.9 °F - 43.0 °F 58% 30.29 in 10.0 mi Calm Calm - N/A   Clear
12:56 PM 64.0 °F - 44.1 °F 48% 30.26 in 10.0 mi Variable 3.5 mph - N/A   Clear
1:56 PM 66.0 °F - 43.0 °F 43% 30.24 in 10.0 mi Calm Calm - N/A   Clear
2:56 PM 66.9 °F - 46.0 °F 47% 30.22 in 10.0 mi ESE 11.5 mph - N/A   Clear
3:56 PM 66.9 °F - 46.9 °F 49% 30.20 in 10.0 mi East 9.2 mph - N/A   Clear
4:56 PM 64.0 °F - 46.9 °F 54% 30.19 in 10.0 mi East 12.7 mph - N/A   Clear
5:56 PM 62.1 °F - 46.9 °F 58% 30.19 in 10.0 mi East 10.4 mph - N/A   Clear
6:56 PM 59.0 °F - 46.9 °F 64% 30.19 in 10.0 mi ESE 5.8 mph - N/A   Clear
7:56 PM 55.0 °F - 46.9 °F 74% 30.19 in 10.0 mi ESE 6.9 mph - N/A   Clear
8:56 PM 52.0 °F - 46.0 °F 80% 30.21 in 10.0 mi ESE 3.5 mph - N/A   Clear
9:56 PM 51.1 °F - 46.0 °F 83% 30.22 in 10.0 mi SSE 5.8 mph - N/A   Clear
10:56 PM 52.0 °F - 46.0 °F 80% 30.21 in 10.0 mi South 4.6 mph - N/A   Clear
11:56 PM 52.0 °F - 46.0 °F 80% 30.21 in 10.0 mi SW 3.5 mph - N/A   Clear